User: anonymous   Login
Location: Unspecified
(0.0000°N, 0.0000°E)
Time: 19:40:34
(UTC+00:00)
Language:

USA 224 - Orbit

View from above orbital plane
View from above orbital plane
View from above satellite
View from above satellite

Ground track
Ground track

The orbit data is extracted from the following two-line orbital elements,

1 37348U 11002A   21135.96494132 0.00007500  00000-0  62344-4 0    07
2 37348  97.8932 247.9329 0528569 253.2088 106.7911 14.81297729    09
Epoch (UTC): 15 May 2021 23:09:30
Eccentricity: 0.0528569
inclination: 97.8932°
perigee height: 255 km
apogee height: 995 km
right ascension of ascending node: 247.9329°
argument of perigee: 253.2088°
revolutions per day: 14.81297729
mean anomaly at epoch: 106.7911°
orbit number at epoch: 0

The dashed part of the orbit path shows where the satellite is in the earth's shadow,  

DLR